Williams, AZ

10:29 AM MST on July 27, 2017 (GMT -0700)
Williams

Weather History for KCMR - October, 2012

Change the Weather History Date:

Wednesday, October 3, 2012

  Actual Average (K40G) Record (K40G)
Temperature  
Mean Temperature 60 °F -  
Max Temperature 78 °F 69 °F 79 °F (1996)
Min Temperature 41 °F 60 °F 77 °F (2000)
Degree Days  
Heating Degree Days 6    
Growing Degree Days 10 (Base 50)    
Moisture  
Dew Point 24 °F    
Average Humidity 27    
Maximum Humidity 53    
Minimum Humidity 12    
Precipitation  
Precipitation 0.00 in - - ()
Sea Level Pressure  
Sea Level Pressure 30.32 in    
Wind  
Wind Speed 9 mph (SSW)    
Max Wind Speed 17 mph    
Max Gust Speed 23 mph    
Visibility 10 miles    
Events      
Averages and records for this station are not official NWS values.
T = Trace of Precipitation, MM = Missing Value Source: NWS Daily Summary

Daily Weather History Graph

Daily Weather History Graph

Search for Another Location

Airport or City:

Trip Planner

Search our weather history database for the weather conditions in past years. The results will help you decide how hot, cold, wet, or windy it might be!

Date:

Astronomy

Oct. 03, 2012 Rise Set
Actual Time 6:25 AM MST 6:08 PM MST
Civil Twilight 6:00 AM MST 6:34 PM MST
Nautical Twilight 5:30 AM MST 7:03 PM MST
Astronomical Twilight 5:01 AM MST 7:33 PM MST
Moon 8:12 PM MST (10/3) 9:43 AM MST (10/3)
Length of Visible Light 12h 34m
Length of Day
11h 43m
Waning Gibbous, 88% of the Moon is Illuminated
Oct 3
Waning Gibbous
Oct 8
Last Quarter
Oct 15
New
Oct 21
First Quarter
Oct 29
Full

Hourly Weather History & Observations

Time (MST) Temp. Windchill Dew Point Humidity Pressure Visibility Wind Dir Wind Speed Gust Speed Precip Events Conditions
12:15 AM 46.4 °F 42.9 °F 24.8 °F 43% 30.29 in 10.0 mi SSE 6.9 mph - N/A   Clear
12:35 AM 46.4 °F 42.4 °F 24.8 °F 43% 30.29 in 10.0 mi SSE 8.1 mph - N/A   Clear
12:55 AM 46.4 °F 42.4 °F 24.8 °F 43% 30.29 in 10.0 mi SSE 8.1 mph - N/A   Clear
1:15 AM 46.4 °F 41.9 °F 24.8 °F 43% 30.30 in 10.0 mi SSE 9.2 mph - N/A   Clear
1:35 AM 44.6 °F 40.2 °F 24.8 °F 46% 30.30 in 10.0 mi SSE 8.1 mph - N/A   Clear
1:55 AM 44.6 °F 40.2 °F 24.8 °F 46% 30.30 in 10.0 mi SSE 8.1 mph - N/A   Clear
2:15 AM 44.6 °F 40.7 °F 24.8 °F 46% 30.30 in 10.0 mi SSE 6.9 mph - N/A   Clear
2:35 AM 44.6 °F 39.7 °F 24.8 °F 46% 30.30 in 10.0 mi SSE 9.2 mph - N/A   Clear
3:15 AM 44.6 °F 39.2 °F 24.8 °F 46% 30.29 in 10.0 mi SSE 10.4 mph - N/A   Clear
3:35 AM 44.6 °F 39.2 °F 24.8 °F 46% 30.29 in 10.0 mi SSE 10.4 mph - N/A   Clear
3:55 AM 44.6 °F 39.7 °F 24.8 °F 46% 30.30 in 10.0 mi SSE 9.2 mph - N/A   Clear
4:15 AM 44.6 °F 39.7 °F 24.8 °F 46% 30.30 in 10.0 mi SSE 9.2 mph - N/A   Clear
4:35 AM 42.8 °F 36.6 °F 24.8 °F 49% 30.30 in 10.0 mi SSE 11.5 mph - N/A   Clear
4:55 AM 44.6 °F 39.2 °F 23.0 °F 43% 30.30 in 10.0 mi SSE 10.4 mph - N/A   Clear
5:15 AM 42.8 °F 38.0 °F 24.8 °F 49% 30.30 in 10.0 mi SSE 8.1 mph - N/A   Clear
5:35 AM 42.8 °F 37.0 °F 24.8 °F 49% 30.30 in 10.0 mi SSE 10.4 mph - N/A   Clear
5:55 AM 42.8 °F 37.5 °F 24.8 °F 49% 30.30 in 10.0 mi SSE 9.2 mph - N/A   Clear
6:35 AM 41.0 °F 36.4 °F 24.8 °F 53% 30.30 in 10.0 mi SSE 6.9 mph - N/A   Clear
6:55 AM 42.8 °F 37.5 °F 24.8 °F 49% 30.31 in 10.0 mi SSE 9.2 mph - N/A   Clear
7:15 AM 46.4 °F 42.4 °F 24.8 °F 43% 30.31 in 10.0 mi SSE 8.1 mph - N/A   Clear
7:35 AM 50.0 °F - 26.6 °F 40% 30.32 in 10.0 mi SSE 5.8 mph - N/A   Clear
7:55 AM 57.2 °F - 26.6 °F 31% 30.32 in 9.0 mi SE 3.5 mph - N/A   Clear
8:15 AM 64.4 °F - 24.8 °F 22% 30.33 in 10.0 mi Calm Calm - N/A   Clear
8:55 AM 71.6 °F - 23.0 °F 16% 30.34 in 10.0 mi WSW 9.2 mph - N/A   Clear
9:15 AM 71.6 °F - 23.0 °F 16% 30.34 in 10.0 mi SW 10.4 mph - N/A   Clear
9:35 AM 73.4 °F - 23.0 °F 15% 30.35 in 10.0 mi West 11.5 mph 18.4 mph N/A   Clear
9:55 AM 73.4 °F - 23.0 °F 15% 30.35 in 10.0 mi West 12.7 mph 17.3 mph N/A   Clear
10:15 AM 73.4 °F - 23.0 °F 15% 30.35 in 10.0 mi West 12.7 mph - N/A   Clear
10:35 AM 73.4 °F - 23.0 °F 15% 30.35 in 10.0 mi West 11.5 mph 19.6 mph N/A   Clear
10:55 AM 75.2 °F - 23.0 °F 14% 30.35 in 10.0 mi WSW 12.7 mph 17.3 mph N/A   Clear
11:15 AM 75.2 °F - 23.0 °F 14% 30.35 in 10.0 mi West 15.0 mph 21.9 mph N/A   Clear
11:35 AM 75.2 °F - 23.0 °F 14% 30.34 in 10.0 mi WSW 12.7 mph 21.9 mph N/A   Clear
12:15 PM 77.0 °F - 21.2 °F 12% 30.34 in 10.0 mi West 17.3 mph 23.0 mph N/A   Clear
12:35 PM 77.0 °F - 23.0 °F 13% 30.33 in 10.0 mi WSW 12.7 mph 21.9 mph N/A   Clear
12:55 PM 77.0 °F - 23.0 °F 13% 30.32 in 10.0 mi West 16.1 mph 19.6 mph N/A   Clear
1:15 PM 77.0 °F - 23.0 °F 13% 30.32 in 10.0 mi WSW 13.8 mph 19.6 mph N/A   Clear
1:35 PM 77.0 °F - 23.0 °F 13% 30.31 in 10.0 mi West 12.7 mph 18.4 mph N/A   Clear
1:55 PM 77.0 °F - 23.0 °F 13% 30.31 in 10.0 mi WNW 15.0 mph 23.0 mph N/A   Clear
2:15 PM 78.8 °F - 23.0 °F 13% 30.31 in 10.0 mi WNW 8.1 mph - N/A   Clear
2:35 PM 78.8 °F - 23.0 °F 13% 30.30 in 10.0 mi WSW 16.1 mph 21.9 mph N/A   Clear
2:55 PM 77.0 °F - 23.0 °F 13% 30.30 in 10.0 mi SW 12.7 mph 19.6 mph N/A   Clear
3:15 PM 77.0 °F - 23.0 °F 13% 30.30 in 10.0 mi WSW 12.7 mph 20.7 mph N/A   Clear
3:35 PM 77.0 °F - 21.2 °F 12% 30.30 in 10.0 mi WSW 12.7 mph 21.9 mph N/A   Clear
3:55 PM 77.0 °F - 23.0 °F 13% 30.30 in 10.0 mi SW 12.7 mph 17.3 mph N/A   Clear
4:15 PM 77.0 °F - 23.0 °F 13% 30.30 in 10.0 mi SW 10.4 mph 17.3 mph N/A   Clear
4:35 PM 77.0 °F - 23.0 °F 13% 30.30 in 10.0 mi WSW 12.7 mph 20.7 mph N/A   Clear
5:15 PM 75.2 °F - 23.0 °F 14% 30.30 in 10.0 mi SW 11.5 mph 18.4 mph N/A   Clear
5:35 PM 73.4 °F - 23.0 °F 15% 30.31 in 10.0 mi SW 11.5 mph - N/A   Clear
5:55 PM 71.6 °F - 23.0 °F 16% 30.31 in 10.0 mi SW 9.2 mph - N/A   Clear
6:15 PM 69.8 °F - 23.0 °F 17% 30.31 in 10.0 mi SW 6.9 mph - N/A   Clear
6:35 PM 68.0 °F - 23.0 °F 18% 30.31 in 10.0 mi SW 11.5 mph - N/A   Clear
6:55 PM 68.0 °F - 23.0 °F 18% 30.32 in 10.0 mi SW 13.8 mph 17.3 mph N/A   Clear
7:15 PM 68.0 °F - 23.0 °F 18% 30.32 in 10.0 mi SSW 11.5 mph 19.6 mph N/A   Clear
7:35 PM 66.2 °F - 23.0 °F 19% 30.33 in 10.0 mi SW 10.4 mph - N/A   Clear
7:55 PM 66.2 °F - 23.0 °F 19% 30.34 in 10.0 mi SW 9.2 mph - N/A   Clear
8:15 PM 64.4 °F - 24.8 °F 22% 30.34 in 10.0 mi SW 10.4 mph - N/A   Clear
8:35 PM 64.4 °F - 24.8 °F 22% 30.34 in 10.0 mi SW 6.9 mph - N/A   Clear
9:15 PM 62.6 °F - 24.8 °F 24% 30.35 in 10.0 mi SW 8.1 mph - N/A   Clear
9:35 PM 62.6 °F - 24.8 °F 24% 30.35 in 10.0 mi SW 6.9 mph - N/A   Clear
9:55 PM 62.6 °F - 24.8 °F 24% 30.36 in 10.0 mi SW 8.1 mph - N/A   Clear
10:15 PM 62.6 °F - 24.8 °F 24% 30.36 in 10.0 mi SW 6.9 mph - N/A   Clear
10:35 PM 62.6 °F - 24.8 °F 24% 30.36 in 10.0 mi SW 6.9 mph - N/A   Clear
10:55 PM 60.8 °F - 26.6 °F 27% 30.36 in 10.0 mi SSW 3.5 mph - N/A   Clear
11:15 PM 59.0 °F - 24.8 °F 27% 30.36 in 10.0 mi South 4.6 mph - N/A   Clear
11:35 PM 59.0 °F - 24.8 °F 27% 30.36 in 10.0 mi South 5.8 mph - N/A   Clear
11:55 PM 57.2 °F - 24.8 °F 29% 30.36 in 10.0 mi South 5.8 mph - N/A   Clear